Muscle Shoals, AL

11:20 PM CDT on July 26, 2017 (GMT -0500)
Northwest Alabama Regional

Weather History for KMSL - November, 2012

Change the Weather History Date:

Tuesday, November 27, 2012

  Actual Average Record
Temperature  
Mean Temperature 47 °F 48 °F  
Max Temperature 55 °F 59 °F 79 °F (1990)
Min Temperature 39 °F 38 °F 15 °F (1938)
Degree Days  
Heating Degree Days 18 17  
Month to date heating degree days 387 344  
Since 1 July heating degree days 562 512  
Cooling Degree Days 0 0  
Month to date cooling degree days 0 4  
Year to date cooling degree days 2163 1868  
Moisture  
Dew Point 40 °F    
Average Humidity 77    
Maximum Humidity 93    
Minimum Humidity 61    
Precipitation  
Precipitation 0.07 in 0.19 in 2.52 in (1994)
Month to date precipitation 1.56 4.09  
Year to date precipitation 37.56 46.95  
Snow  
Snow 0.00 in - - ()
Month to date snowfall 0.0  
Since 1 July snowfall 0.0  
Since 1 September snowfall 0.0  
Snow Depth 0.00 in    
Sea Level Pressure  
Sea Level Pressure 30.25 in    
Wind  
Wind Speed 7 mph (NNE)    
Max Wind Speed 15 mph    
Max Gust Speed 21 mph    
Visibility 8 miles    
Events Rain    
T = Trace of Precipitation, MM = Missing Value Source: NWS Daily Summary

Daily Weather History Graph

Daily Weather History Graph

Search for Another Location

Airport or City:

Trip Planner

Search our weather history database for the weather conditions in past years. The results will help you decide how hot, cold, wet, or windy it might be!

Date:

Astronomy

Nov. 27, 2012 Rise Set
Actual Time 6:36 AM CST 4:40 PM CST
Civil Twilight 6:08 AM CST 5:07 PM CST
Nautical Twilight 5:37 AM CST 5:38 PM CST
Astronomical Twilight 5:07 AM CST 6:08 PM CST
Moon 4:10 PM CST 5:42 AM CST
Length of Visible Light 10h 58m
Length of Day
10h 03m
Waxing Gibbous, 99% of the Moon is Illuminated
Nov 27
Waxing Gibbous
Nov 28
Full
Dec 6
Last Quarter
Dec 13
New
Dec 19
First Quarter

Hourly Weather History & Observations

Time (CST) Temp. Windchill Dew Point Humidity Pressure Visibility Wind Dir Wind Speed Gust Speed Precip Events Conditions
12:12 AM 55.4 °F - 53.6 °F 94% 30.12 in 2.0 mi North 3.5 mph - N/A   Overcast
12:27 AM 55.4 °F - 51.8 °F 88% 30.11 in 4.0 mi North 4.6 mph - N/A   Overcast
12:42 AM 53.6 °F - 51.8 °F 94% 30.12 in 2.5 mi North 6.9 mph - N/A   Overcast
12:49 AM 53.6 °F - 51.8 °F 94% 30.12 in 4.0 mi North 3.5 mph - N/A   Overcast
12:53 AM 54.0 °F - 51.1 °F 90% 30.11 in 5.0 mi North 6.9 mph - N/A   Overcast
1:12 AM 53.6 °F - 51.8 °F 94% 30.12 in 7.0 mi North 5.8 mph - N/A   Overcast
1:53 AM 53.1 °F - 50.0 °F 89% 30.12 in 9.0 mi North 4.6 mph - 0.03 in   Overcast
2:53 AM 50.0 °F - 46.0 °F 86% 30.16 in 4.0 mi North 11.5 mph 20.7 mph 0.03 in Rain Light Rain
3:53 AM 48.0 °F - 45.0 °F 89% 30.17 in 7.0 mi North 8.1 mph - 0.01 in   Overcast
4:53 AM 46.0 °F 41.4 °F 42.1 °F 86% 30.18 in 10.0 mi North 9.2 mph 16.1 mph N/A   Overcast
5:28 AM 46.4 °F 41.9 °F 41.0 °F 81% 30.19 in 10.0 mi NNE 9.2 mph 16.1 mph N/A   Overcast
5:53 AM 46.0 °F 41.4 °F 41.0 °F 83% 30.20 in 10.0 mi NNE 9.2 mph - N/A   Overcast
6:53 AM 45.0 °F 40.6 °F 39.9 °F 82% 30.22 in 9.0 mi North 8.1 mph 16.1 mph N/A   Overcast
7:44 AM 44.6 °F 40.7 °F 39.2 °F 81% 30.25 in 5.0 mi North 6.9 mph - N/A   Haze
7:53 AM 45.0 °F 41.8 °F 41.0 °F 86% 30.25 in 4.0 mi North 5.8 mph - N/A   Overcast
8:53 AM 45.0 °F 39.7 °F 39.9 °F 82% 30.28 in 5.0 mi NNE 10.4 mph - N/A   Haze
9:45 AM 44.6 °F 39.7 °F 39.2 °F 81% 30.30 in 6.0 mi NNE 9.2 mph - N/A   Haze
9:53 AM 45.0 °F 40.6 °F 39.0 °F 80% 30.30 in 6.0 mi North 8.1 mph - N/A   Haze
10:53 AM 45.0 °F 39.7 °F 39.0 °F 80% 30.30 in 7.0 mi North 10.4 mph - N/A   Overcast
11:53 AM 46.0 °F 43.1 °F 39.0 °F 76% 30.27 in 8.0 mi North 5.8 mph - N/A   Overcast
12:46 PM 46.4 °F 41.9 °F 37.4 °F 71% 30.27 in 8.0 mi North 9.2 mph - N/A   Overcast
12:53 PM 46.0 °F 41.4 °F 37.9 °F 73% 30.27 in 8.0 mi North 9.2 mph - N/A   Overcast
1:53 PM 48.0 °F - 37.0 °F 66% 30.26 in 9.0 mi North 8.1 mph - N/A   Mostly Cloudy
2:21 PM 48.2 °F - 37.4 °F 66% 30.27 in 9.0 mi NNW 9.2 mph - N/A   Scattered Clouds
2:53 PM 48.0 °F - 36.0 °F 63% 30.27 in 10.0 mi Variable 6.9 mph - N/A   Partly Cloudy
3:10 PM 46.4 °F 42.4 °F 35.6 °F 66% 30.28 in 10.0 mi North 8.1 mph - N/A   Mostly Cloudy
3:53 PM 46.0 °F 42.5 °F 35.1 °F 66% 30.29 in 10.0 mi North 6.9 mph - N/A   Mostly Cloudy
4:05 PM 44.6 °F 40.2 °F 35.6 °F 71% 30.30 in 9.0 mi NNE 8.1 mph - N/A   Scattered Clouds
4:45 PM 44.6 °F 40.2 °F 35.6 °F 71% 30.31 in 9.0 mi NNE 8.1 mph - N/A   Mostly Cloudy
4:53 PM 44.1 °F 40.8 °F 34.0 °F 68% 30.32 in 9.0 mi North 5.8 mph - N/A   Mostly Cloudy
6:53 PM 42.1 °F 37.1 °F 32.0 °F 67% 30.36 in 9.0 mi NE 8.1 mph - N/A   Overcast
7:53 PM 39.0 °F 35.7 °F 30.9 °F 73% 30.35 in 9.0 mi ENE 4.6 mph - N/A   Mostly Cloudy
8:53 PM 39.9 °F 35.1 °F 32.0 °F 73% 30.35 in 9.0 mi ENE 6.9 mph - N/A   Overcast
9:53 PM 39.9 °F 35.8 °F 32.0 °F 73% 30.35 in 9.0 mi ENE 5.8 mph - N/A   Overcast
10:53 PM 39.0 °F 35.7 °F 32.0 °F 76% 30.35 in 9.0 mi NE 4.6 mph - N/A   Overcast
11:53 PM 39.0 °F 35.7 °F 32.0 °F 76% 30.37 in 8.0 mi East 4.6 mph - N/A   Overcast